Location: Fort Worth, Tx
(32.7431°N, 97.3695°W)
Time: 10:57:27
(UTC-04:00)

A-11 Canister half - Pass Details

Date: 19 August 2024
Orbit: 1524 x 1684 km, 47.3° (Epoch: 13 September)

Event Time Altitude Azimuth Distance (km) Brightness Sun altitude
Rises 00:38:27 0° 262° (W) 4,874 11.9 -37.0°
Reaches altitude 10° 00:41:47 10° 268° (W) 3,905 11.4 -37.4°
Maximum altitude 00:51:18 45° 339° (NNW) 2,166 9.9 -38.5°
Drops below altitude 10° 01:00:57 10° 51° (NE) 3,947 11.2 -39.6°
Sets 01:04:22 0° 57° (ENE) 4,930 11.7 -39.9°
